,,,PA_Meas_PMT16A,,PR_Meas_QMR101_102,,RH_Meas_QMH101,,SR_Meas_QMS101,,TA_Meas_QMH101,,GenWind,,GenWind,
date,time,status,PA,status,PR,status,RH,status,SR,status,TA,status,DirAvg,status,SpdAvg,
2009-10-21, 00:00:04,VALID,1010.81,VALID,0,VALID,97.1597,VALID,0,VALID,23.733,VALID,63,VALID,0,
2009-10-21, 00:01:04,VALID,1010.82,VALID,0,VALID,97.1979,VALID,0.105969,VALID,23.7312,VALID,63,VALID,0,
2009-10-21, 00:02:04,VALID,1010.81,VALID,0,VALID,97.2207,VALID,0,VALID,23.6922,VALID,63,VALID,0,
2009-10-21, 00:03:04,VALID,1010.77,VALID,0,VALID,97.2589,VALID,0,VALID,23.7117,VALID,63,VALID,0,
2009-10-21, 00:04:04,VALID,1010.78,VALID,0,VALID,97.2665,VALID,0,VALID,23.7312,VALID,63,VALID,0,
2009-10-21, 00:05:04,VALID,1010.78,VALID,0,VALID,97.2741,VALID,0.105969,VALID,23.7525,VALID,63,VALID,0,
2009-10-21, 00:06:04,VALID,1010.77,VALID,0,VALID,97.2589,VALID,0,VALID,23.7525,VALID,63,VALID,0,
2009-10-21, 00:07:04,VALID,1010.77,VALID,0,VALID,97.2284,VALID,0.105969,VALID,23.7507,VALID,63,VALID,0,
2009-10-21, 00:08:04,VALID,1010.73,VALID,0,VALID,97.1902,VALID,0,VALID,23.733,VALID,63,VALID,0,
2009-10-21, 00:09:04,VALID,1010.73,VALID,0,VALID,97.2512,VALID,0.105969,VALID,23.7117,VALID,63,VALID,0,
2009-10-21, 00:10:04,VALID,1010.72,VALID,0,VALID,97.2436,VALID,0,VALID,23.7117,VALID,63,VALID,0,
2009-10-21, 00:11:04,VALID,1010.7,VALID,0,VALID,97.2589,VALID,0,VALID,23.6922,VALID,63,VALID,0,
2009-10-21, 00:12:04,VALID,1010.7,VALID,0,VALID,97.2665,VALID,0.105969,VALID,23.7135,VALID,63,VALID,0,
2009-10-21, 00:13:04,VALID,1010.67,VALID,0,VALID,97.2894,VALID,0,VALID,23.6922,VALID,63,VALID,0,
2009-10-21, 00:14:04,VALID,1010.62,VALID,0,VALID,97.3122,VALID,0.105969,VALID,23.6922,VALID,63,VALID,0,
2009-10-21, 00:15:04,VALID,1010.6,VALID,0,VALID,97.3427,VALID,0.105969,VALID,23.6922,VALID,63,VALID,0,
2009-10-21, 00:16:04,VALID,1010.58,VALID,0,VALID,97.3504,VALID,0,VALID,23.7117,VALID,63,VALID,0,
2009-10-21, 00:17:04,VALID,1010.57,VALID,0,VALID,97.3809,VALID,0,VALID,23.6922,VALID,63,VALID,0,
2009-10-21, 00:18:04,VALID,1010.55,VALID,0,VALID,97.4037,VALID,0.105969,VALID,23.6922,VALID,63,VALID,0,
2009-10-21, 00:19:04,VALID,1010.55,VALID,0,VALID,97.3961,VALID,0,VALID,23.6922,VALID,63,VALID,0,
2009-10-21, 00:20:04,VALID,1010.53,VALID,0,VALID,97.4495,VALID,0.105969,VALID,23.6727,VALID,63,VALID,0,
2009-10-21, 00:21:04,VALID,1010.54,VALID,0,VALID,97.4648,VALID,0.105969,VALID,23.694,VALID,63,VALID,0,
2009-10-21, 00:22:04,VALID,1010.55,VALID,0,VALID,97.48,VALID,0,VALID,23.6745,VALID,63,VALID,0,
2009-10-21, 00:23:04,VALID,1010.52,VALID,0,VALID,97.48,VALID,0.105969,VALID,23.6532,VALID,63,VALID,0,
2009-10-21, 00:24:04,VALID,1010.52,VALID,0,VALID,97.4876,VALID,0,VALID,23.6143,VALID,63,VALID,0,
2009-10-21, 00:25:04,VALID,1010.54,VALID,0,VALID,97.5334,VALID,0,VALID,23.6143,VALID,63,VALID,0,
2009-10-21, 00:26:04,VALID,1010.5,VALID,0,VALID,97.5563,VALID,0.105969,VALID,23.6161,VALID,63,VALID,0,
2009-10-21, 00:27:04,VALID,1010.51,VALID,0,VALID,97.602,VALID,0.105969,VALID,23.5753,VALID,63,VALID,0,
2009-10-21, 00:28:04,VALID,1010.5,VALID,0,VALID,97.6478,VALID,0.105969,VALID,23.5753,VALID,63,VALID,0,
2009-10-21, 00:29:04,VALID,1010.46,VALID,0,VALID,97.6478,VALID,0,VALID,23.5753,VALID,63,VALID,0,
2009-10-21, 00:30:04,VALID,1010.45,VALID,0,VALID,97.6935,VALID,0.105969,VALID,23.5558,VALID,63,VALID,0,
2009-10-21, 00:31:04,VALID,1010.45,VALID,0,VALID,97.7164,VALID,0.105969,VALID,23.5753,VALID,63,VALID,0,
2009-10-21, 00:32:04,VALID,1010.44,VALID,0,VALID,97.7317,VALID,0.105969,VALID,23.5753,VALID,63,VALID,0,
2009-10-21, 00:33:04,VALID,1010.43,VALID,0,VALID,97.7317,VALID,0.105969,VALID,23.5576,VALID,63,VALID,0,
2009-10-21, 00:34:04,VALID,1010.41,VALID,0,VALID,97.7317,VALID,0,VALID,23.5363,VALID,63,VALID,0,
2009-10-21, 00:35:04,VALID,1010.41,VALID,0,VALID,97.7317,VALID,0,VALID,23.5381,VALID,63,VALID,0,
2009-10-21, 00:36:04,VALID,1010.42,VALID,0,VALID,97.7469,VALID,0,VALID,23.5169,VALID,63,VALID,0,
2009-10-21, 00:37:04,VALID,1010.43,VALID,0,VALID,97.8079,VALID,0.105969,VALID,23.5169,VALID,63,VALID,0,
2009-10-21, 00:38:04,VALID,1010.46,VALID,0,VALID,97.8079,VALID,0,VALID,23.4974,VALID,63,VALID,0,
2009-10-21, 00:39:04,VALID,1010.47,VALID,0,VALID,97.8384,VALID,0,VALID,23.4974,VALID,63,VALID,0,
2009-10-21, 00:40:04,VALID,1010.49,VALID,0,VALID,97.846,VALID,0.105969,VALID,23.4974,VALID,63,VALID,0,
2009-10-21, 00:41:04,VALID,1010.47,VALID,0,VALID,97.8613,VALID,0.105969,VALID,23.4584,VALID,63,VALID,0,
2009-10-21, 00:42:04,VALID,1010.48,VALID,0,VALID,97.8842,VALID,0,VALID,23.4602,VALID,63,VALID,0,
2009-10-21, 00:43:04,VALID,1010.47,VALID,0,VALID,97.8537,VALID,0,VALID,23.4407,VALID,63,VALID,0,
2009-10-21, 00:44:04,VALID,1010.46,VALID,0,VALID,97.8537,VALID,0,VALID,23.4212,VALID,63,VALID,0,
2009-10-21, 00:45:04,VALID,1010.43,VALID,0,VALID,97.8765,VALID,0,VALID,23.4017,VALID,63,VALID,0,
2009-10-21, 00:46:04,VALID,1010.41,VALID,0,VALID,97.8765,VALID,0,VALID,23.4017,VALID,63,VALID,0,
2009-10-21, 00:47:04,VALID,1010.39,VALID,0,VALID,97.8765,VALID,0.105969,VALID,23.3805,VALID,63,VALID,0,
2009-10-21, 00:48:04,VALID,1010.36,VALID,0,VALID,97.9299,VALID,0.105969,VALID,23.3805,VALID,63,VALID,0,
2009-10-21, 00:49:04,VALID,1010.39,VALID,0,VALID,97.9528,VALID,0,VALID,23.361,VALID,63,VALID,0,
2009-10-21, 00:50:04,VALID,1010.36,VALID,0,VALID,97.9376,VALID,0.105969,VALID,23.361,VALID,63,VALID,0,
2009-10-21, 00:51:04,VALID,1010.39,VALID,0,VALID,97.9528,VALID,0.105969,VALID,23.3415,VALID,63,VALID,0,
2009-10-21, 00:52:04,VALID,1010.39,VALID,0,VALID,97.9833,VALID,0.105969,VALID,23.3415,VALID,63,VALID,0,
2009-10-21, 00:53:04,VALID,1010.42,VALID,0,VALID,97.9833,VALID,0.105969,VALID,23.322,VALID,63,VALID,0,
2009-10-21, 00:54:04,VALID,1010.42,VALID,0,VALID,97.9986,VALID,0,VALID,23.3238,VALID,63,VALID,0,
2009-10-21, 00:55:04,VALID,1010.39,VALID,0,VALID,97.9986,VALID,0,VALID,23.3238,VALID,63,VALID,0,
2009-10-21, 00:56:04,VALID,1010.37,VALID,0,VALID,98.0062,VALID,0,VALID,23.3238,VALID,63,VALID,0,
2009-10-21, 00:57:04,VALID,1010.35,VALID,0,VALID,98.0367,VALID,0,VALID,23.3238,VALID,63,VALID,0,
2009-10-21, 00:58:04,VALID,1010.33,VALID,0,VALID,98.0519,VALID,0,VALID,23.3238,VALID,63,VALID,0,
2009-10-21, 00:59:04,VALID,1010.32,VALID,0,VALID,98.0824,VALID,0,VALID,23.3433,VALID,63,VALID,0,
2009-10-21, 01:00:04,VALID,1010.3,VALID,0,VALID,98.0748,VALID,0,VALID,23.3433,VALID,63,VALID,0,
2009-10-21, 01:01:04,VALID,1010.28,VALID,0,VALID,98.1053,VALID,0,VALID,23.3433,VALID,63,VALID,0,
2009-10-21, 01:02:04,VALID,1010.28,VALID,0,VALID,98.0824,VALID,0,VALID,23.3238,VALID,63,VALID,0,
2009-10-21, 01:03:05,VALID,1010.26,VALID,0,VALID,98.1053,VALID,0,VALID,23.3238,VALID,63,VALID,0,
2009-10-21, 01:04:05,VALID,1010.24,VALID,0,VALID,98.1129,VALID,0,VALID,23.3238,VALID,63,VALID,0,
2009-10-21, 01:05:05,VALID,1010.24,VALID,0,VALID,98.0977,VALID,0,VALID,23.3451,VALID,63,VALID,0,
2009-10-21, 01:06:05,VALID,1010.24,VALID,0,VALID,98.1129,VALID,0,VALID,23.3043,VALID,63,VALID,0,
2009-10-21, 01:07:05,VALID,1010.24,VALID,0,VALID,98.1053,VALID,0,VALID,23.3238,VALID,63,VALID,0,
2009-10-21, 01:08:05,VALID,1010.22,VALID,0,VALID,98.1358,VALID,0,VALID,23.3433,VALID,63,VALID,0,
2009-10-21, 01:09:05,VALID,1010.24,VALID,0,VALID,98.1053,VALID,0.105969,VALID,23.3433,VALID,63,VALID,0,
2009-10-21, 01:10:05,VALID,1010.24,VALID,0,VALID,98.1129,VALID,0,VALID,23.322,VALID,63,VALID,0,
2009-10-21, 01:11:05,VALID,1010.23,VALID,0,VALID,98.1206,VALID,0.105969,VALID,23.3415,VALID,63,VALID,0,
2009-10-21, 01:12:05,VALID,1010.24,VALID,0,VALID,98.1434,VALID,0.105969,VALID,23.3415,VALID,63,VALID,0,
2009-10-21, 01:13:05,VALID,1010.2,VALID,0,VALID,98.1282,VALID,0,VALID,23.3415,VALID,63,VALID,0,
2009-10-21, 01:14:05,VALID,1010.21,VALID,0,VALID,98.1358,VALID,0.105969,VALID,23.3415,VALID,63,VALID,0,
2009-10-21, 01:15:05,VALID,1010.18,VALID,0,VALID,98.1206,VALID,0.105969,VALID,23.322,VALID,63,VALID,0,
2009-10-21, 01:16:05,VALID,1010.17,VALID,0,VALID,98.1358,VALID,0.105969,VALID,23.322,VALID,63,VALID,0,
2009-10-21, 01:17:05,VALID,1010.14,VALID,0,VALID,98.1434,VALID,0.105969,VALID,23.3043,VALID,63,VALID,0,
2009-10-21, 01:18:05,VALID,1010.14,VALID,0,VALID,98.1434,VALID,0.105969,VALID,23.2831,VALID,63,VALID,0,
2009-10-21, 01:19:05,VALID,1010.11,VALID,0,VALID,98.1587,VALID,0.105969,VALID,23.2831,VALID,63,VALID,0,
2009-10-21, 01:20:05,VALID,1010.09,VALID,0,VALID,98.174,VALID,0.105969,VALID,23.2831,VALID,63,VALID,0,
2009-10-21, 01:21:05,VALID,1010.12,VALID,0,VALID,98.1511,VALID,0.105969,VALID,23.2831,VALID,63,VALID,0,
2009-10-21, 01:22:05,VALID,1010.1,VALID,0,VALID,98.1511,VALID,0,VALID,23.2831,VALID,63,VALID,0,
2009-10-21, 01:23:05,VALID,1010.06,VALID,0,VALID,98.1587,VALID,0.105969,VALID,23.2831,VALID,63,VALID,0,
2009-10-21, 01:24:05,VALID,1010.08,VALID,0,VALID,98.1587,VALID,0,VALID,23.3043,VALID,63,VALID,0,
2009-10-21, 01:25:05,VALID,1010.06,VALID,0,VALID,98.1358,VALID,0,VALID,23.322,VALID,63,VALID,0,
2009-10-21, 01:26:05,VALID,1010.01,VALID,0,VALID,98.1358,VALID,0.105969,VALID,23.322,VALID,63,VALID,0,
2009-10-21, 01:27:05,VALID,1010.02,VALID,0,VALID,98.1511,VALID,0,VALID,23.3433,VALID,63,VALID,0,
2009-10-21, 01:28:05,VALID,1009.99,VALID,0,VALID,98.1587,VALID,0.105969,VALID,23.3415,VALID,63,VALID,0,
2009-10-21, 01:29:05,VALID,1009.97,VALID,0,VALID,98.1358,VALID,0,VALID,23.3415,VALID,63,VALID,0,
2009-10-21, 01:30:05,VALID,1009.96,VALID,0,VALID,98.1434,VALID,0.105969,VALID,23.361,VALID,63,VALID,0,
2009-10-21, 01:31:05,VALID,1009.98,VALID,0,VALID,98.1587,VALID,0,VALID,23.3823,VALID,63,VALID,0,
2009-10-21, 01:32:05,VALID,1009.96,VALID,0,VALID,98.1587,VALID,0,VALID,23.361,VALID,63,VALID,0,
2009-10-21, 01:33:05,VALID,1009.94,VALID,0,VALID,98.174,VALID,0.105969,VALID,23.3823,VALID,63,VALID,0,
2009-10-21, 01:34:05,VALID,1009.92,VALID,0,VALID,98.1892,VALID,0,VALID,23.3823,VALID,63,VALID,0,
2009-10-21, 01:35:05,VALID,1009.92,VALID,0,VALID,98.1816,VALID,0.105969,VALID,23.3823,VALID,63,VALID,0,
2009-10-21, 01:36:05,VALID,1009.88,VALID,0,VALID,98.1968,VALID,0,VALID,23.3628,VALID,63,VALID,0,
2009-10-21, 01:37:05,VALID,1009.86,VALID,0,VALID,98.174,VALID,0.105969,VALID,23.361,VALID,63,VALID,0,
2009-10-21, 01:38:05,VALID,1009.82,VALID,0,VALID,98.174,VALID,0.105969,VALID,23.361,VALID,63,VALID,0,
2009-10-21, 01:39:05,VALID,1009.79,VALID,0,VALID,98.1663,VALID,0,VALID,23.3415,VALID,63,VALID,0,
2009-10-21, 01:40:05,VALID,1009.78,VALID,0,VALID,98.1587,VALID,0.105969,VALID,23.361,VALID,63,VALID,0,
2009-10-21, 01:41:05,VALID,1009.77,VALID,0,VALID,98.1816,VALID,0.105969,VALID,23.3415,VALID,63,VALID,0,
2009-10-21, 01:42:05,VALID,1009.76,VALID,0,VALID,98.1511,VALID,0.105969,VALID,23.3415,VALID,63,VALID,0,
2009-10-21, 01:43:05,VALID,1009.75,VALID,0,VALID,98.1358,VALID,0,VALID,23.3415,VALID,63,VALID,0,
2009-10-21, 01:44:05,VALID,1009.77,VALID,0,VALID,98.1511,VALID,0,VALID,23.3628,VALID,63,VALID,0,
2009-10-21, 01:45:05,VALID,1009.74,VALID,0,VALID,98.1587,VALID,0.105969,VALID,23.3628,VALID,63,VALID,0,
2009-10-21, 01:46:05,VALID,1009.72,VALID,0,VALID,98.1587,VALID,0.105969,VALID,23.3628,VALID,63,VALID,0,
2009-10-21, 01:47:05,VALID,1009.73,VALID,0,VALID,98.1434,VALID,0.105969,VALID,23.3415,VALID,63,VALID,0,
2009-10-21, 01:48:05,VALID,1009.75,VALID,0,VALID,98.1511,VALID,0.105969,VALID,23.3415,VALID,63,VALID,0,
2009-10-21, 01:49:05,VALID,1009.75,VALID,0,VALID,98.1511,VALID,0.105969,VALID,23.3628,VALID,63,VALID,0,
2009-10-21, 01:50:05,VALID,1009.72,VALID,0,VALID,98.1511,VALID,0,VALID,23.3415,VALID,63,VALID,0,
2009-10-21, 01:51:05,VALID,1009.76,VALID,0,VALID,98.1358,VALID,0,VALID,23.322,VALID,63,VALID,0,
2009-10-21, 01:52:05,VALID,1009.75,VALID,0,VALID,98.1587,VALID,0,VALID,23.3433,VALID,63,VALID,0,
2009-10-21, 01:53:05,VALID,1009.74,VALID,0,VALID,98.1511,VALID,0.105969,VALID,23.3415,VALID,63,VALID,0,
2009-10-21, 01:54:05,VALID,1009.74,VALID,0,VALID,98.1587,VALID,0.105969,VALID,23.3433,VALID,63,VALID,0,
2009-10-21, 01:55:05,VALID,1009.74,VALID,0,VALID,98.1434,VALID,0,VALID,23.3628,VALID,63,VALID,0,
2009-10-21, 01:56:05,VALID,1009.72,VALID,0,VALID,98.1587,VALID,0,VALID,23.3628,VALID,63,VALID,0,
2009-10-21, 01:57:05,VALID,1009.7,VALID,0,VALID,98.1511,VALID,0.105969,VALID,23.3433,VALID,63,VALID,0,
2009-10-21, 01:58:05,VALID,1009.71,VALID,0,VALID,98.1434,VALID,0.105969,VALID,23.3026,VALID,63,VALID,0,
2009-10-21, 01:59:05,VALID,1009.72,VALID,0,VALID,98.1511,VALID,0.105969,VALID,23.3238,VALID,63,VALID,0,
2009-10-21, 02:00:05,VALID,1009.7,VALID,0,VALID,98.1587,VALID,0.105969,VALID,23.3238,VALID,63,VALID,0,
2009-10-21, 02:01:05,VALID,1009.7,VALID,0,VALID,98.1587,VALID,0.105969,VALID,23.3043,VALID,63,VALID,0,
2009-10-21, 02:02:05,VALID,1009.73,VALID,0,VALID,98.1511,VALID,0.105969,VALID,23.3043,VALID,63,VALID,0,
2009-10-21, 02:03:05,VALID,1009.72,VALID,0,VALID,98.1511,VALID,0.105969,VALID,23.3043,VALID,63,VALID,0,
2009-10-21, 02:04:05,VALID,1009.71,VALID,0,VALID,98.174,VALID,0,VALID,23.3043,VALID,63,VALID,0,
2009-10-21, 02:05:05,VALID,1009.74,VALID,0,VALID,98.1587,VALID,0,VALID,23.2848,VALID,63,VALID,0,
2009-10-21, 02:06:05,VALID,1009.7,VALID,0,VALID,98.174,VALID,0,VALID,23.2848,VALID,63,VALID,0,
2009-10-21, 02:07:05,VALID,1009.71,VALID,0,VALID,98.1511,VALID,0.105969,VALID,23.2441,VALID,63,VALID,0,
2009-10-21, 02:08:05,VALID,1009.71,VALID,0,VALID,98.1587,VALID,0,VALID,23.2459,VALID,63,VALID,0,
2009-10-21, 02:09:05,VALID,1009.7,VALID,0,VALID,98.1511,VALID,0,VALID,23.2476,VALID,63,VALID,0,
2009-10-21, 02:10:05,VALID,1009.73,VALID,0,VALID,98.1663,VALID,0,VALID,23.2264,VALID,63,VALID,0,
2009-10-21, 02:11:05,VALID,1009.72,VALID,0,VALID,98.1663,VALID,0,VALID,23.2282,VALID,63,VALID,0,
2009-10-21, 02:12:05,VALID,1009.75,VALID,0,VALID,98.1663,VALID,0,VALID,23.2282,VALID,63,VALID,0,
2009-10-21, 02:13:05,VALID,1009.73,VALID,0,VALID,98.1587,VALID,0,VALID,23.2069,VALID,63,VALID,0,
2009-10-21, 02:14:05,VALID,1009.73,VALID,0,VALID,98.1511,VALID,0,VALID,23.2069,VALID,63,VALID,0,
2009-10-21, 02:15:05,VALID,1009.72,VALID,0,VALID,98.1587,VALID,0,VALID,23.2069,VALID,63,VALID,0,
2009-10-21, 02:16:05,VALID,1009.72,VALID,0,VALID,98.1663,VALID,0,VALID,23.2069,VALID,63,VALID,0,
2009-10-21, 02:17:05,VALID,1009.73,VALID,0,VALID,98.174,VALID,0,VALID,23.2282,VALID,63,VALID,0,
2009-10-21, 02:18:05,VALID,1009.71,VALID,0,VALID,98.1816,VALID,0,VALID,23.2282,VALID,63,VALID,0,
2009-10-21, 02:19:05,VALID,1009.75,VALID,0,VALID,98.1587,VALID,0,VALID,23.2069,VALID,63,VALID,0,
2009-10-21, 02:20:05,VALID,1009.75,VALID,0,VALID,98.1663,VALID,0,VALID,23.2476,VALID,63,VALID,0,
2009-10-21, 02:21:05,VALID,1009.75,VALID,0,VALID,98.1587,VALID,0,VALID,23.2282,VALID,63,VALID,0,
2009-10-21, 02:22:05,VALID,1009.75,VALID,0,VALID,98.174,VALID,0,VALID,23.2282,VALID,63,VALID,0,
2009-10-21, 02:23:05,VALID,1009.76,VALID,0,VALID,98.1587,VALID,0,VALID,23.2282,VALID,63,VALID,0,
2009-10-21, 02:24:05,VALID,1009.75,VALID,0,VALID,98.1892,VALID,0.105969,VALID,23.2051,VALID,63,VALID,0,
2009-10-21, 02:25:05,VALID,1009.73,VALID,0,VALID,98.1968,VALID,0,VALID,23.2264,VALID,63,VALID,0,
2009-10-21, 02:26:05,VALID,1009.72,VALID,0,VALID,98.1968,VALID,0,VALID,23.2264,VALID,63,VALID,0,
2009-10-21, 02:27:05,VALID,1009.71,VALID,0,VALID,98.174,VALID,0,VALID,23.2459,VALID,63,VALID,0,
2009-10-21, 02:28:05,VALID,1009.7,VALID,0,VALID,98.174,VALID,0,VALID,23.2051,VALID,63,VALID,0,
2009-10-21, 02:29:05,VALID,1009.72,VALID,0,VALID,98.1892,VALID,0,VALID,23.2051,VALID,63,VALID,0,
2009-10-21, 02:30:05,VALID,1009.74,VALID,0,VALID,98.1892,VALID,0,VALID,23.2246,VALID,63,VALID,0,
2009-10-21, 02:31:05,VALID,1009.74,VALID,0,VALID,98.1511,VALID,0.105969,VALID,23.2246,VALID,63,VALID,0,
2009-10-21, 02:32:05,VALID,1009.73,VALID,0,VALID,98.1587,VALID,0,VALID,23.2636,VALID,63,VALID,0,
2009-10-21, 02:33:05,VALID,1009.71,VALID,0,VALID,98.1587,VALID,0.105969,VALID,23.2831,VALID,63,VALID,0,
2009-10-21, 02:34:05,VALID,1009.7,VALID,0,VALID,98.1587,VALID,0,VALID,23.2831,VALID,60,VALID,0,
2009-10-21, 02:35:05,VALID,1009.68,VALID,0,VALID,98.1816,VALID,0,VALID,23.3026,VALID,60,VALID,0,
2009-10-21, 02:36:05,VALID,1009.66,VALID,0,VALID,98.1816,VALID,0.105969,VALID,23.322,VALID,60,VALID,0,
2009-10-21, 02:37:05,VALID,1009.66,VALID,0,VALID,98.1663,VALID,0.105969,VALID,23.322,VALID,60,VALID,0,
2009-10-21, 02:38:05,VALID,1009.66,VALID,0,VALID,98.1892,VALID,0,VALID,23.322,VALID,60,VALID,0,
2009-10-21, 02:39:05,VALID,1009.64,VALID,0,VALID,98.1892,VALID,0,VALID,23.3433,VALID,60,VALID,0,
2009-10-21, 02:40:05,VALID,1009.62,VALID,0,VALID,98.1816,VALID,0,VALID,23.3238,VALID,60,VALID,0,
2009-10-21, 02:41:05,VALID,1009.63,VALID,0,VALID,98.174,VALID,0,VALID,23.3238,VALID,60,VALID,0,
2009-10-21, 02:42:05,VALID,1009.61,VALID,0,VALID,98.174,VALID,0,VALID,23.3433,VALID,60,VALID,0,
2009-10-21, 02:43:05,VALID,1009.6,VALID,0,VALID,98.1587,VALID,0,VALID,23.3433,VALID,60,VALID,0,
2009-10-21, 02:44:05,VALID,1009.62,VALID,0,VALID,98.1587,VALID,0,VALID,23.3238,VALID,60,VALID,0,
2009-10-21, 02:45:05,VALID,1009.62,VALID,0,VALID,98.1816,VALID,0,VALID,23.3043,VALID,60,VALID,0,
2009-10-21, 02:46:05,VALID,1009.59,VALID,0,VALID,98.1282,VALID,0,VALID,23.3256,VALID,60,VALID,0,
2009-10-21, 02:47:05,VALID,1009.58,VALID,0,VALID,98.1511,VALID,0,VALID,23.2848,VALID,60,VALID,0,
2009-10-21, 02:48:05,VALID,1009.56,VALID,0,VALID,98.1282,VALID,0,VALID,23.2848,VALID,60,VALID,0,
2009-10-21, 02:49:05,VALID,1009.56,VALID,0,VALID,98.1511,VALID,0,VALID,23.2654,VALID,60,VALID,0,
2009-10-21, 02:50:05,VALID,1009.53,VALID,0,VALID,98.1511,VALID,0,VALID,23.2459,VALID,60,VALID,0,
2009-10-21, 02:51:05,VALID,1009.54,VALID,0,VALID,98.1358,VALID,0,VALID,23.2459,VALID,60,VALID,0,
2009-10-21, 02:52:05,VALID,1009.53,VALID,0,VALID,98.1358,VALID,0,VALID,23.2264,VALID,60,VALID,0,
2009-10-21, 02:53:05,VALID,1009.53,VALID,0,VALID,98.1434,VALID,0,VALID,23.2069,VALID,60,VALID,0,
2009-10-21, 02:54:05,VALID,1009.5,VALID,0,VALID,98.1282,VALID,0,VALID,23.1857,VALID,60,VALID,0,
2009-10-21, 02:55:05,VALID,1009.51,VALID,0,VALID,98.1587,VALID,0.105969,VALID,23.1857,VALID,60,VALID,0,
2009-10-21, 02:56:05,VALID,1009.5,VALID,0,VALID,98.1511,VALID,0.105969,VALID,23.1662,VALID,60,VALID,0,
2009-10-21, 02:57:05,VALID,1009.51,VALID,0,VALID,98.1663,VALID,0.105969,VALID,23.1662,VALID,60,VALID,0,
2009-10-21, 02:58:05,VALID,1009.46,VALID,0,VALID,98.1663,VALID,0.105969,VALID,23.1467,VALID,60,VALID,0,
2009-10-21, 02:59:05,VALID,1009.46,VALID,0,VALID,98.174,VALID,0.105969,VALID,23.1485,VALID,60,VALID,0,
2009-10-21, 03:00:05,VALID,1009.47,VALID,0,VALID,98.1663,VALID,0.105969,VALID,23.1272,VALID,60,VALID,0,
2009-10-21, 03:01:05,VALID,1009.47,VALID,0,VALID,98.1663,VALID,0.105969,VALID,23.1272,VALID,60,VALID,0,
2009-10-21, 03:02:05,VALID,1009.46,VALID,0,VALID,98.1434,VALID,0,VALID,23.129,VALID,60,VALID,0,
2009-10-21, 03:03:05,VALID,1009.46,VALID,0,VALID,98.1434,VALID,0,VALID,23.1272,VALID,60,VALID,0,
2009-10-21, 03:04:05,VALID,1009.48,VALID,0,VALID,98.1587,VALID,0.105969,VALID,23.1272,VALID,60,VALID,0,
2009-10-21, 03:05:05,VALID,1009.47,VALID,0,VALID,98.174,VALID,0.105969,VALID,23.1272,VALID,60,VALID,0,
2009-10-21, 03:06:05,VALID,1009.44,VALID,0,VALID,98.1816,VALID,0.105969,VALID,23.1272,VALID,60,VALID,0,
2009-10-21, 03:07:05,VALID,1009.48,VALID,0,VALID,98.1816,VALID,0.105969,VALID,23.1272,VALID,60,VALID,0,
2009-10-21, 03:08:05,VALID,1009.47,VALID,0,VALID,98.1816,VALID,0.105969,VALID,23.1272,VALID,60,VALID,0,
2009-10-21, 03:09:05,VALID,1009.48,VALID,0,VALID,98.1663,VALID,0,VALID,23.129,VALID,60,VALID,0,
2009-10-21, 03:10:05,VALID,1009.48,VALID,0,VALID,98.1816,VALID,0,VALID,23.1095,VALID,60,VALID,0,
2009-10-21, 03:11:05,VALID,1009.51,VALID,0,VALID,98.2045,VALID,0,VALID,23.1307,VALID,60,VALID,0,
2009-10-21, 03:12:05,VALID,1009.51,VALID,0,VALID,98.174,VALID,0,VALID,23.1307,VALID,60,VALID,0,
2009-10-21, 03:13:05,VALID,1009.51,VALID,0,VALID,98.1968,VALID,0,VALID,23.1095,VALID,60,VALID,0,
2009-10-21, 03:14:05,VALID,1009.49,VALID,0,VALID,98.1968,VALID,0,VALID,23.1307,VALID,60,VALID,0,
2009-10-21, 03:15:05,VALID,1009.53,VALID,0,VALID,98.1968,VALID,0,VALID,23.1112,VALID,60,VALID,0,
2009-10-21, 03:16:05,VALID,1009.54,VALID,0,VALID,98.1968,VALID,0,VALID,23.09,VALID,60,VALID,0,
2009-10-21, 03:17:05,VALID,1009.56,VALID,0,VALID,98.1968,VALID,0,VALID,23.09,VALID,60,VALID,0,
2009-10-21, 03:18:05,VALID,1009.57,VALID,0,VALID,98.1968,VALID,0,VALID,23.0705,VALID,60,VALID,0,
2009-10-21, 03:19:05,VALID,1009.56,VALID,0,VALID,98.2121,VALID,0,VALID,23.0511,VALID,59,VALID,0,
2009-10-21, 03:20:05,VALID,1009.55,VALID,0,VALID,98.2045,VALID,0,VALID,23.0333,VALID,55,VALID,0,
2009-10-21, 03:21:05,VALID,1009.55,VALID,0,VALID,98.2121,VALID,0,VALID,23.0316,VALID,55,VALID,0,
2009-10-21, 03:22:05,VALID,1009.53,VALID,0,VALID,98.2273,VALID,0,VALID,23.0121,VALID,55,VALID,0,
2009-10-21, 03:23:05,VALID,1009.52,VALID,0,VALID,98.2273,VALID,0,VALID,22.9926,VALID,55,VALID,0,
2009-10-21, 03:24:05,VALID,1009.53,VALID,0,VALID,98.2426,VALID,0,VALID,22.9926,VALID,55,VALID,0,
2009-10-21, 03:25:05,VALID,1009.53,VALID,0,VALID,98.2197,VALID,0,VALID,22.9731,VALID,55,VALID,0,
2009-10-21, 03:26:05,VALID,1009.51,VALID,0,VALID,98.2197,VALID,0,VALID,22.9536,VALID,55,VALID,0,
2009-10-21, 03:27:05,VALID,1009.52,VALID,0,VALID,98.2426,VALID,0,VALID,22.9342,VALID,55,VALID,0,
2009-10-21, 03:28:05,VALID,1009.53,VALID,0,VALID,98.2273,VALID,0,VALID,22.9147,VALID,55,VALID,0,
2009-10-21, 03:29:05,VALID,1009.52,VALID,0,VALID,98.2121,VALID,0,VALID,22.9147,VALID,55,VALID,0,
2009-10-21, 03:30:05,VALID,1009.52,VALID,0,VALID,98.2197,VALID,0,VALID,22.9147,VALID,55,VALID,0,
2009-10-21, 03:31:05,VALID,1009.49,VALID,0,VALID,98.2197,VALID,0,VALID,22.9147,VALID,55,VALID,0,
2009-10-21, 03:32:05,VALID,1009.47,VALID,0,VALID,98.2197,VALID,0,VALID,22.8952,VALID,55,VALID,0,
2009-10-21, 03:33:05,VALID,1009.46,VALID,0,VALID,98.1968,VALID,0,VALID,22.9147,VALID,55,VALID,0,
2009-10-21, 03:34:05,VALID,1009.43,VALID,0,VALID,98.2273,VALID,0,VALID,22.9147,VALID,55,VALID,0,
2009-10-21, 03:35:05,VALID,1009.41,VALID,0,VALID,98.2273,VALID,0,VALID,22.9147,VALID,55,VALID,0,
2009-10-21, 03:36:05,VALID,1009.38,VALID,0,VALID,98.2273,VALID,0,VALID,22.9147,VALID,55,VALID,0,
2009-10-21, 03:37:05,VALID,1009.36,VALID,0,VALID,98.2426,VALID,0,VALID,22.9147,VALID,55,VALID,0,
2009-10-21, 03:38:05,VALID,1009.38,VALID,0,VALID,98.2426,VALID,0,VALID,22.9164,VALID,55,VALID,0,
2009-10-21, 03:39:05,VALID,1009.37,VALID,0,VALID,98.2655,VALID,0,VALID,22.8952,VALID,55,VALID,0,
2009-10-21, 03:40:05,VALID,1009.38,VALID,0,VALID,98.2273,VALID,0,VALID,22.8952,VALID,55,VALID,0,
2009-10-21, 03:41:05,VALID,1009.42,VALID,0,VALID,98.2273,VALID,0,VALID,22.8952,VALID,55,VALID,0,
2009-10-21, 03:42:05,VALID,1009.45,VALID,0,VALID,98.235,VALID,0,VALID,22.9147,VALID,55,VALID,0,
2009-10-21, 03:43:05,VALID,1009.45,VALID,0,VALID,98.2502,VALID,0,VALID,22.9342,VALID,55,VALID,0,
2009-10-21, 03:44:05,VALID,1009.48,VALID,0,VALID,98.2502,VALID,0,VALID,22.9342,VALID,55,VALID,0,
2009-10-21, 03:45:05,VALID,1009.52,VALID,0,VALID,98.2578,VALID,0,VALID,22.9129,VALID,55,VALID,0,
2009-10-21, 03:46:04,VALID,1009.5,VALID,0,VALID,98.2655,VALID,0,VALID,22.9342,VALID,55,VALID,0,
2009-10-21, 03:47:04,VALID,1009.49,VALID,0,VALID,98.2502,VALID,0,VALID,22.9342,VALID,55,VALID,0,
2009-10-21, 03:48:04,VALID,1009.51,VALID,0,VALID,98.2502,VALID,0,VALID,22.9342,VALID,55,VALID,0,
2009-10-21, 03:49:04,VALID,1009.53,VALID,0,VALID,98.2655,VALID,0,VALID,22.9147,VALID,55,VALID,0,
2009-10-21, 03:50:04,VALID,1009.54,VALID,0,VALID,98.2502,VALID,0,VALID,22.9147,VALID,55,VALID,0,
2009-10-21, 03:51:04,VALID,1009.56,VALID,0,VALID,98.2578,VALID,0,VALID,22.9554,VALID,55,VALID,0,
2009-10-21, 03:52:04,VALID,1009.6,VALID,0,VALID,98.2578,VALID,0,VALID,22.9359,VALID,55,VALID,0,
2009-10-21, 03:53:04,VALID,1009.62,VALID,0,VALID,98.2426,VALID,0,VALID,22.9359,VALID,55,VALID,0,
2009-10-21, 03:54:04,VALID,1009.65,VALID,0,VALID,98.235,VALID,0.105969,VALID,22.9129,VALID,55,VALID,0,
2009-10-21, 03:55:04,VALID,1009.68,VALID,0,VALID,98.2578,VALID,0.105969,VALID,22.9129,VALID,55,VALID,0,
2009-10-21, 03:56:04,VALID,1009.65,VALID,0,VALID,98.2655,VALID,0.105969,VALID,22.9129,VALID,55,VALID,0,